Flag for Austria Weather past 2 weeks in Amstetten, Lower Austria, Austria

Now
37 °F

Light rain. Passing clouds.


Feels Like: N/A
Forecast: 38 / 47 °F
Wind: N/A

Location: Linz / Hoersching-Flughafen

Current Time: Mar 1, 2015 at 8:37:05 PM

Latest Report: Mar 1, 2015 at 8:00 PM


Visibility: 2 mi

Pressure: 29.90 "Hg

Humidity: 98%

Dew point: 37 °F

Location of AmstettenLocation

Historic Weather in Amstetten — Graph

°F

Amstetten temperature yesterday

Maximum temperature yesterday: 40 °F (at 3:00 PM)
Minimum temperature yesterday: 30 °F (at 11:00 PM)
Average temperature yesterday: 37 °F

Past Weeks' High & Low Weather Summary

 TemperatureHumidityPressure
High51 °F (Feb 16, 4:00 PM)100% (Feb 15, 1:00 AM)30.81 "Hg (Feb 15, 1:00 AM)
Low21 °F (Feb 15, 3:00 AM)45% (Feb 26, 3:00 PM)29.54 "Hg (Feb 21, 5:00 PM)
Average35 °F83%30.09 "Hg
* Reported Feb 14 7:00 PM — Mar 1 7:00 PM, Amstetten, Weather by CustomWeather, © 2015

Note: Actual official high and low records may vary slightly from our data, if they occured in-between our weather recording intervals... More about our weather records

Advertising

Amstetten weather history for previous 24 hours

 ConditionsComfort  
Time TempWeatherWind HumidityBarometerVisibility
7:00 PM
Sun, Mar 1
37 °FLight rain. Low clouds.N/A97%29.90 "Hg2 mi
6:00 PM37 °FLight rain. Low clouds.N/A95%29.89 "Hg2 mi
5:00 PM38 °FRain showers. Low clouds.N/A89%29.89 "Hg2 mi
4:00 PM39 °FOvercast.N/A84%29.88 "Hg5 mi
3:00 PM39 °FRain showers. Overcast.N/A80%29.89 "Hg4 mi
2:00 PM38 °FOvercast.N/A82%29.90 "Hg4 mi
1:00 PM35 °FLow clouds.N/A90%29.94 "Hg2 mi
12:00 PM33 °FLow clouds.N/A97%29.97 "Hg1 mi
11:00 AM31 °FLight rain. Ice fog.N/A100%29.98 "Hg1 mi
10:00 AM29 °FIce fog.N/A100%29.99 "Hg0 mi
9:00 AM28 °FIce fog.N/A100%30.00 "Hg0 mi
8:00 AM27 °FIce fog.N/A100%30.02 "Hg0 mi
7:00 AM27 °FIce fog.N/A100%30.03 "Hg0 mi
6:00 AMN/APassing clouds.13 mphN/AN/A1 mi
5:00 AM26 °FLight rain. Passing clouds.N/A100%30.04 "Hg0 mi
4:00 AM27 °FPassing clouds.N/A98%30.05 "Hg2 mi
3:00 AM28 °FLight rain. Overcast.N/A98%30.06 "Hg2 mi
2:00 AM28 °FLight rain. Overcast.N/A99%30.08 "Hg2 mi
1:00 AM28 °FLight rain. Overcast.N/A99%30.11 "Hg1 mi
12:00 AM30 °FPassing clouds.N/A97%30.11 "Hg2 mi
11:00 PM
Sat, Feb 28
30 °FPassing clouds.N/A95%30.12 "Hg4 mi
10:00 PM31 °FOvercast.N/A94%30.14 "Hg5 mi
9:00 PM33 °FPassing clouds.N/A94%30.16 "Hg4 mi
8:00 PM34 °FPassing clouds.N/A89%30.16 "Hg6 mi
Weather by CustomWeather, © 2015

See weather overviewHow to use our weather pages